Location: Newark
(41.6478°N, 9.0078°E)
Time: 16:11:37
(UTC+00:00)

UWE-3 - Pass Details

Date: 28 January 2020
Orbit: 585 x 683 km, 97.6° (Epoch: 17 February)

Event Time Altitude Azimuth Distance (km) Brightness Sun altitude
Rises 17:08:26 0° 204° (SSW) 2,814 ? -6.9°
Reaches altitude 10° 17:11:11 10° 223° (SW) 1,910 ? -7.4°
Maximum altitude 17:14:02 18° 267° (W) 1,462 ? -7.9°
Drops below altitude 10° 17:16:53 10° 311° (NW) 1,914 ? -8.4°
Sets 17:19:39 0° 331° (NNW) 2,822 ? -8.9°
